Terug naar catalogus

DELTA 1 DEB

ActiefSSO
NORAD 10865·DEBRIS·🇺🇸 United States

Gelanceerd Jul 29, 1976 vanaf Vandenberg Space Force Base

Loading…

Volgende Passages (komende 24 uur)

TLE

VersSource: Space-Track

Epoch: Sep 14, 2026, 08:08 UTC

1 10865U 76077CT  26257.33919600 -.00000031  00000-0  12209-3 0  9992
2 10865 102.4030 201.7845 0111873 355.3266 159.2059 12.20361681233751

Volg DELTA 1 DEB in realtime met AllMySat

Download on the App Store